Overview Statistics Trail Chart Weather Telemetry Raw packets
 

This is the latest recevied weather packets stored in our database for station/object E25DQY-1. If no packets are shown the sender has not sent any weather packets the latest 10 day(s).

<< 5 6 7 8 9 10 11 >>
Time Temp. Humidity Pressure Rain* Wind** Luminosity Snow
1788402630 31.67° C 36% 1006 hPa - - 0 W/m² -
1788400808 35.56° C 38% 1007 hPa - - 0 W/m² -
1788398986 37.22° C 54% 1006 hPa - - 0 W/m² -
1788397164 35° C 58% 1006 hPa - - 0 W/m² -
1788395341 32.78° C 62% 1005 hPa - - 0 W/m² -
1788393519 31.67° C 62% 1005 hPa - - 0 W/m² -
1788391697 31.11° C 61% 1005 hPa - - 0 W/m² -
1788389875 31.11° C 61% 1005 hPa - - 0 W/m² -
1788388053 31.11° C 60% 1005 hPa - - 0 W/m² -
1788386231 31.11° C 60% 1005 hPa - - 0 W/m² -
1788384409 30.56° C 60% 1005 hPa - - 0 W/m² -
1788382587 30.56° C 60% 1005 hPa - - 0 W/m² -
1788380765 30° C 60% 1005 hPa - - 0 W/m² -
1788378943 29.44° C 61% 1005 hPa - - 0 W/m² -
1788377121 28.33° C 62% 1005 hPa - - 0 W/m² -
1788375299 26.11° C 59% 1005 hPa - - 0 W/m² -
1788373477 21.11° C 46% 1005 hPa - - 0 W/m² -
1788371655 21.11° C 44% 1005 hPa - - 0 W/m² -
1788369833 21.11° C 43% 1006 hPa - - 0 W/m² -
1788368011 21.11° C 43% 1006 hPa - - 0 W/m² -
1788366189 21.11° C 42% 1006 hPa - - 0 W/m² -
1788364368 21.11° C 42% 1006 hPa - - 0 W/m² -
1788362545 21.67° C 42% 1006 hPa - - 0 W/m² -
1788360723 21.67° C 42% 1006 hPa - - 0 W/m² -
1788358908 21.67° C 41% 1005 hPa - - 0 W/m² -

* Rain since midnight (hover to see other rain measurements)
** Current wind speed in m/s (hover to see current wind gust speed)